Time,TemperatureF,DewpointF,PressureIn,WindDirection,WindDirectionDegrees,WindSpeedMPH,WindSpeedGustMPH,Humidity,HourlyPrecipIn,Conditions,Clouds,dailyrainin,SoftwareType,DateUTC
2013-05-19 00:00:00,59.5,57.8,30.11,ESE,106,1.0,3.0,94,0.00,,,0.01,Wunderground v.1.15,2013-05-19 04:00:00,
2013-05-19 00:05:00,59.5,57.8,30.11,East,91,1.0,3.0,94,0.00,,,0.00,Wunderground v.1.15,2013-05-19 04:05:00,
2013-05-19 00:10:00,59.4,58.0,30.11,SE,124,1.0,1.0,95,0.00,,,0.00,Wunderground v.1.15,2013-05-19 04:10:00,
2013-05-19 00:15:00,59.4,58.0,30.11,East,93,0.0,1.0,95,0.00,,,0.00,Wunderground v.1.15,2013-05-19 04:15:00,
2013-05-19 00:25:00,59.4,58.0,30.11,SSE,147,1.0,2.0,95,0.00,,,0.00,Wunderground v.1.15,2013-05-19 04:25:00,
2013-05-19 00:35:00,59.4,58.0,30.11,NE,56,1.0,2.0,95,0.00,,,0.00,Wunderground v.1.15,2013-05-19 04:35:00,
2013-05-19 00:45:00,59.3,57.9,30.11,NE,52,0.0,0.0,95,0.00,,,0.00,Wunderground v.1.15,2013-05-19 04:45:00,
2013-05-19 00:55:00,59.2,57.8,30.11,ENE,76,1.0,1.0,95,0.00,,,0.00,Wunderground v.1.15,2013-05-19 04:55:00,
2013-05-19 01:05:00,59.1,57.7,30.11,ESE,122,1.0,2.0,95,0.00,,,0.00,Wunderground v.1.15,2013-05-19 05:05:00,
2013-05-19 01:15:00,59.0,57.6,30.11,NE,53,1.0,1.0,95,0.00,,,0.00,Wunderground v.1.15,2013-05-19 05:15:00,
2013-05-19 01:25:00,58.9,57.5,30.10,East,87,0.0,1.0,95,0.00,,,0.00,Wunderground v.1.15,2013-05-19 05:25:00,
2013-05-19 01:35:00,58.9,57.5,30.10,NE,35,1.0,2.0,95,0.00,,,0.00,Wunderground v.1.15,2013-05-19 05:35:00,
2013-05-19 01:45:00,58.9,57.8,30.10,ESE,116,0.0,0.0,96,0.00,,,0.00,Wunderground v.1.15,2013-05-19 05:45:00,
2013-05-19 01:50:00,58.9,57.8,30.10,NNE,21,0.0,0.0,96,0.00,,,0.00,Wunderground v.1.15,2013-05-19 05:50:00,
2013-05-19 01:55:00,58.9,57.8,30.10,NE,42,1.0,4.0,96,0.00,,,0.00,Wunderground v.1.15,2013-05-19 05:55:00,
2013-05-19 02:05:00,58.8,57.7,30.09,ESE,112,1.0,2.0,96,0.00,,,0.00,Wunderground v.1.15,2013-05-19 06:05:00,
2013-05-19 02:15:00,58.8,57.7,30.10,ENE,71,1.0,1.0,96,0.00,,,0.00,Wunderground v.1.15,2013-05-19 06:15:00,
2013-05-19 02:20:00,58.8,57.7,30.09,ENE,73,0.0,0.0,96,0.00,,,0.00,Wunderground v.1.15,2013-05-19 06:20:00,
2013-05-19 02:30:00,58.8,57.7,30.09,East,101,0.0,0.0,96,0.00,,,0.00,Wunderground v.1.15,2013-05-19 06:30:00,
2013-05-19 02:40:00,58.8,57.7,30.09,NE,44,0.0,0.0,96,0.00,,,0.00,Wunderground v.1.15,2013-05-19 06:40:00,
2013-05-19 02:45:00,58.7,57.6,30.09,NE,52,0.0,0.0,96,0.00,,,0.00,Wunderground v.1.15,2013-05-19 06:45:00,
2013-05-19 02:55:00,58.7,57.6,30.09,NE,52,0.0,1.0,96,0.00,,,0.00,Wunderground v.1.15,2013-05-19 06:55:00,
2013-05-19 03:05:00,58.7,57.6,30.08,NE,52,0.0,0.0,96,0.00,,,0.00,Wunderground v.1.15,2013-05-19 07:05:00,
2013-05-19 03:15:00,58.7,57.6,30.08,NE,52,0.0,0.0,96,0.00,,,0.00,Wunderground v.1.15,2013-05-19 07:15:00,
2013-05-19 03:25:00,58.7,57.6,30.08,NE,52,0.0,1.0,96,0.00,,,0.00,Wunderground v.1.15,2013-05-19 07:25:00,
2013-05-19 03:35:00,58.6,57.5,30.08,ESE,103,0.0,1.0,96,0.00,,,0.00,Wunderground v.1.15,2013-05-19 07:35:00,
2013-05-19 03:45:00,58.6,57.5,30.08,NE,51,0.0,0.0,96,0.00,,,0.00,Wunderground v.1.15,2013-05-19 07:45:00,
2013-05-19 03:55:00,58.6,57.5,30.08,NE,53,0.0,0.0,96,0.00,,,0.00,Wunderground v.1.15,2013-05-19 07:55:00,
2013-05-19 04:05:00,58.5,57.4,30.08,ENE,59,0.0,0.0,96,0.00,,,0.00,Wunderground v.1.15,2013-05-19 08:05:00,
2013-05-19 04:15:00,58.6,57.5,30.08,East,93,0.0,1.0,96,0.00,,,0.00,Wunderground v.1.15,2013-05-19 08:15:00,
2013-05-19 04:25:00,58.5,57.4,30.08,ESE,106,1.0,1.0,96,0.00,,,0.00,Wunderground v.1.15,2013-05-19 08:25:00,
2013-05-19 04:30:00,58.5,57.4,30.08,ENE,71,1.0,2.0,96,0.00,,,0.00,Wunderground v.1.15,2013-05-19 08:30:00,
2013-05-19 04:40:00,58.5,57.4,30.08,NW,315,0.0,1.0,96,0.00,,,0.00,Wunderground v.1.15,2013-05-19 08:40:00,
2013-05-19 04:50:00,58.4,57.3,30.08,NNE,24,1.0,1.0,96,0.00,,,0.00,Wunderground v.1.15,2013-05-19 08:50:00,
2013-05-19 05:00:00,58.3,57.2,30.08,NE,47,1.0,1.0,96,0.00,,,0.00,Wunderground v.1.15,2013-05-19 09:00:00,
2013-05-19 05:05:00,58.3,57.2,30.08,NE,48,1.0,1.0,96,0.00,,,0.00,Wunderground v.1.15,2013-05-19 09:05:00,
2013-05-19 05:15:00,58.3,57.5,30.08,NE,45,0.0,0.0,97,0.00,,,0.00,Wunderground v.1.15,2013-05-19 09:15:00,
2013-05-19 05:20:00,58.3,57.5,30.08,NE,45,0.0,0.0,97,0.00,,,0.00,Wunderground v.1.15,2013-05-19 09:20:00,
2013-05-19 05:30:00,58.2,57.4,30.08,SE,125,0.0,0.0,97,0.00,,,0.00,Wunderground v.1.15,2013-05-19 09:30:00,
2013-05-19 05:40:00,58.2,57.4,30.08,NE,51,0.0,0.0,97,0.00,,,0.00,Wunderground v.1.15,2013-05-19 09:40:00,
2013-05-19 05:45:00,58.2,57.4,30.09,ENE,64,0.0,0.0,97,0.00,,,0.00,Wunderground v.1.15,2013-05-19 09:45:00,
2013-05-19 05:55:00,58.2,57.4,30.09,SE,141,0.0,1.0,97,0.00,,,0.00,Wunderground v.1.15,2013-05-19 09:55:00,
2013-05-19 06:05:00,58.1,57.3,30.08,NE,53,1.0,1.0,97,0.00,,,0.00,Wunderground v.1.15,2013-05-19 10:05:00,
2013-05-19 06:15:00,58.0,57.2,30.08,NNE,21,1.0,1.0,97,0.00,,,0.00,Wunderground v.1.15,2013-05-19 10:15:00,
2013-05-19 06:25:00,58.0,57.2,30.09,NE,56,0.0,2.0,97,0.00,,,0.00,Wunderground v.1.15,2013-05-19 10:25:00,
2013-05-19 06:35:00,58.0,57.2,30.09,NE,46,0.0,2.0,97,0.00,,,0.00,Wunderground v.1.15,2013-05-19 10:35:00,
2013-05-19 06:45:00,58.0,57.2,30.09,NE,55,1.0,3.0,97,0.00,,,0.00,Wunderground v.1.15,2013-05-19 10:45:00,
2013-05-19 06:55:00,58.1,57.3,30.09,ESE,120,0.0,2.0,97,0.00,,,0.00,Wunderground v.1.15,2013-05-19 10:55:00,
2013-05-19 07:05:00,58.1,57.3,30.10,ENE,77,0.0,1.0,97,0.00,,,0.00,Wunderground v.1.15,2013-05-19 11:05:00,
2013-05-19 07:15:00,58.1,57.3,30.10,ENE,77,0.0,0.0,97,0.00,,,0.00,Wunderground v.1.15,2013-05-19 11:15:00,
2013-05-19 07:25:00,58.1,57.3,30.10,ESE,102,0.0,0.0,97,0.00,,,0.00,Wunderground v.1.15,2013-05-19 11:25:00,
2013-05-19 07:30:00,58.1,57.3,30.10,ESE,113,0.0,0.0,97,0.00,,,0.00,Wunderground v.1.15,2013-05-19 11:30:00,
2013-05-19 07:40:00,58.2,57.4,30.10,SE,125,0.0,0.0,97,0.00,,,0.00,Wunderground v.1.15,2013-05-19 11:40:00,
2013-05-19 07:50:00,58.2,57.4,30.10,SSE,167,1.0,1.0,97,0.00,,,0.00,Wunderground v.1.15,2013-05-19 11:50:00,
2013-05-19 08:00:00,58.2,57.4,30.11,East,87,0.0,2.0,97,0.00,,,0.00,Wunderground v.1.15,2013-05-19 12:00:00,
2013-05-19 08:05:00,58.2,57.4,30.11,SSE,147,0.0,2.0,97,0.00,,,0.00,Wunderground v.1.15,2013-05-19 12:05:00,
2013-05-19 08:15:00,58.2,57.4,30.11,ESE,120,0.0,0.0,97,0.00,,,0.00,Wunderground v.1.15,2013-05-19 12:15:00,
2013-05-19 08:20:00,58.2,57.4,30.11,South,170,0.0,0.0,97,0.00,,,0.00,Wunderground v.1.15,2013-05-19 12:20:00,
2013-05-19 08:30:00,58.2,57.4,30.11,East,100,1.0,1.0,97,0.00,,,0.00,Wunderground v.1.15,2013-05-19 12:30:00,
2013-05-19 08:40:00,58.2,57.4,30.12,ESE,115,1.0,1.0,97,0.00,,,0.00,Wunderground v.1.15,2013-05-19 12:40:00,
2013-05-19 08:45:00,58.2,57.4,30.12,SE,145,1.0,1.0,97,0.00,,,0.00,Wunderground v.1.15,2013-05-19 12:45:00,
2013-05-19 08:55:00,58.2,57.4,30.12,ESE,108,1.0,2.0,97,0.00,,,0.00,Wunderground v.1.15,2013-05-19 12:55:00,
2013-05-19 09:05:00,58.2,57.4,30.12,NNE,23,0.0,1.0,97,0.00,,,0.00,Wunderground v.1.15,2013-05-19 13:05:00,
2013-05-19 09:15:00,58.2,57.4,30.12,ENE,70,1.0,1.0,97,0.00,,,0.00,Wunderground v.1.15,2013-05-19 13:15:00,
2013-05-19 09:25:00,58.3,57.5,30.12,ESE,115,0.0,0.0,97,0.00,,,0.00,Wunderground v.1.15,2013-05-19 13:25:00,
2013-05-19 09:35:00,58.3,57.5,30.12,ESE,106,0.0,0.0,97,0.00,,,0.00,Wunderground v.1.15,2013-05-19 13:35:00,
2013-05-19 09:45:00,58.2,57.4,30.12,ESE,108,1.0,1.0,97,0.00,,,0.00,Wunderground v.1.15,2013-05-19 13:45:00,
2013-05-19 09:55:00,58.2,57.4,30.12,ENE,66,1.0,2.0,97,0.00,,,0.00,Wunderground v.1.15,2013-05-19 13:55:00,
2013-05-19 10:05:00,58.2,57.4,30.12,ENE,65,0.0,0.0,97,0.00,,,0.00,Wunderground v.1.15,2013-05-19 14:05:00,
2013-05-19 10:15:00,58.2,57.4,30.12,South,189,0.0,1.0,97,0.00,,,0.00,Wunderground v.1.15,2013-05-19 14:15:00,
2013-05-19 10:25:00,58.2,57.4,30.12,ESE,102,0.0,0.0,97,0.00,,,0.00,Wunderground v.1.15,2013-05-19 14:25:00,
2013-05-19 10:35:00,58.2,57.4,30.12,ESE,115,1.0,1.0,97,0.00,,,0.01,Wunderground v.1.15,2013-05-19 14:35:00,
2013-05-19 10:45:00,58.3,57.5,30.12,East,97,1.0,1.0,97,0.00,,,0.01,Wunderground v.1.15,2013-05-19 14:45:00,
2013-05-19 10:55:00,58.4,57.6,30.13,East,93,0.0,2.0,97,0.00,,,0.01,Wunderground v.1.15,2013-05-19 14:55:00,
2013-05-19 11:05:00,58.4,57.6,30.13,ESE,112,1.0,1.0,97,0.00,,,0.01,Wunderground v.1.15,2013-05-19 15:05:00,
2013-05-19 11:15:00,58.5,57.7,30.13,East,89,0.0,1.0,97,0.00,,,0.01,Wunderground v.1.15,2013-05-19 15:15:00,
2013-05-19 11:20:00,58.6,57.8,30.13,East,88,0.0,0.0,97,0.00,,,0.01,Wunderground v.1.15,2013-05-19 15:20:00,
2013-05-19 11:30:00,58.7,57.9,30.13,ENE,73,0.0,2.0,97,0.00,,,0.01,Wunderground v.1.15,2013-05-19 15:30:00,
2013-05-19 11:40:00,58.8,58.0,30.12,SSE,156,1.0,1.0,97,0.00,,,0.01,Wunderground v.1.15,2013-05-19 15:40:00,
2013-05-19 11:50:00,58.8,58.0,30.12,ESE,113,1.0,1.0,97,0.00,,,0.01,Wunderground v.1.15,2013-05-19 15:50:00,
2013-05-19 12:00:00,58.9,58.1,30.12,NE,54,1.0,3.0,97,0.00,,,0.01,Wunderground v.1.15,2013-05-19 16:00:00,
2013-05-19 12:05:00,59.0,58.2,30.12,NE,34,1.0,3.0,97,0.00,,,0.01,Wunderground v.1.15,2013-05-19 16:05:00,
2013-05-19 12:15:00,59.2,58.3,30.12,ENE,71,0.0,2.0,97,0.00,,,0.01,Wunderground v.1.15,2013-05-19 16:15:00,
2013-05-19 12:25:00,59.4,58.5,30.11,ESE,110,0.0,1.0,97,0.00,,,0.01,Wunderground v.1.15,2013-05-19 16:25:00,
2013-05-19 12:35:00,59.5,58.6,30.11,East,91,1.0,1.0,97,0.00,,,0.01,Wunderground v.1.15,2013-05-19 16:35:00,
2013-05-19 12:40:00,59.6,58.7,30.11,East,86,0.0,0.0,97,0.00,,,0.01,Wunderground v.1.15,2013-05-19 16:40:00,
2013-05-19 12:50:00,59.7,58.8,30.11,NE,48,0.0,1.0,97,0.00,,,0.01,Wunderground v.1.15,2013-05-19 16:50:00,
2013-05-19 12:55:00,59.6,58.5,30.10,East,89,0.0,2.0,96,0.00,,,0.01,Wunderground v.1.15,2013-05-19 16:55:00,
2013-05-19 13:05:00,59.7,58.6,30.10,ENE,69,1.0,1.0,96,0.00,,,0.01,Wunderground v.1.15,2013-05-19 17:05:00,
2013-05-19 13:15:00,59.8,58.7,30.10,East,99,0.0,2.0,96,0.00,,,0.01,Wunderground v.1.15,2013-05-19 17:15:00,
2013-05-19 13:25:00,59.9,58.8,30.09,East,93,0.0,0.0,96,0.00,,,0.01,Wunderground v.1.15,2013-05-19 17:25:00,
2013-05-19 13:35:00,60.0,59.1,30.09,ESE,104,0.0,1.0,97,0.00,,,0.01,Wunderground v.1.15,2013-05-19 17:35:00,
2013-05-19 13:45:00,60.1,59.2,30.08,ESE,103,0.0,0.0,97,0.00,,,0.01,Wunderground v.1.15,2013-05-19 17:45:00,
2013-05-19 13:55:00,60.1,59.2,30.08,East,89,0.0,0.0,97,0.00,,,0.01,Wunderground v.1.15,2013-05-19 17:55:00,
2013-05-19 14:05:00,60.2,59.1,30.08,East,93,1.0,1.0,96,0.00,,,0.01,Wunderground v.1.15,2013-05-19 18:05:00,
2013-05-19 14:15:00,60.3,59.2,30.07,NNE,24,0.0,1.0,96,0.00,,,0.01,Wunderground v.1.15,2013-05-19 18:15:00,
2013-05-19 14:25:00,60.4,59.3,30.07,NE,50,1.0,1.0,96,0.00,,,0.01,Wunderground v.1.15,2013-05-19 18:25:00,
2013-05-19 14:35:00,60.5,59.4,30.07,NE,50,0.0,0.0,96,0.00,,,0.01,Wunderground v.1.15,2013-05-19 18:35:00,
2013-05-19 14:45:00,60.8,59.7,30.06,NE,50,0.0,0.0,96,0.00,,,0.01,Wunderground v.1.15,2013-05-19 18:45:00,
2013-05-19 14:55:00,60.6,59.5,30.06,SE,129,0.0,0.0,96,0.00,,,0.01,Wunderground v.1.15,2013-05-19 18:55:00,
2013-05-19 15:05:00,60.7,59.6,30.06,SE,129,0.0,0.0,96,0.00,,,0.01,Wunderground v.1.15,2013-05-19 19:05:00,
2013-05-19 15:15:00,60.8,59.7,30.06,SE,129,0.0,0.0,96,0.00,,,0.01,Wunderground v.1.15,2013-05-19 19:15:00,
2013-05-19 15:25:00,60.9,59.8,30.06,SE,129,0.0,0.0,96,0.00,,,0.01,Wunderground v.1.15,2013-05-19 19:25:00,
2013-05-19 15:35:00,61.1,60.0,30.06,SE,129,0.0,0.0,96,0.00,,,0.01,Wunderground v.1.15,2013-05-19 19:35:00,
2013-05-19 15:40:00,61.1,60.0,30.05,SE,129,0.0,0.0,96,0.00,,,0.01,Wunderground v.1.15,2013-05-19 19:40:00,
2013-05-19 15:50:00,61.4,60.2,30.05,SE,127,0.0,0.0,96,0.00,,,0.01,Wunderground v.1.15,2013-05-19 19:50:00,
2013-05-19 16:00:00,61.5,60.3,30.05,SE,125,0.0,0.0,96,0.00,,,0.01,Wunderground v.1.15,2013-05-19 20:00:00,
2013-05-19 16:05:00,61.5,60.3,30.05,SE,126,0.0,0.0,96,0.00,,,0.01,Wunderground v.1.15,2013-05-19 20:05:00,
2013-05-19 16:15:00,61.6,60.4,30.05,SE,126,0.0,0.0,96,0.00,,,0.01,Wunderground v.1.15,2013-05-19 20:15:00,
2013-05-19 16:25:00,61.7,60.5,30.05,SE,126,0.0,0.0,96,0.00,,,0.01,Wunderground v.1.15,2013-05-19 20:25:00,
2013-05-19 16:35:00,62.0,60.8,30.04,SE,126,0.0,0.0,96,0.00,,,0.01,Wunderground v.1.15,2013-05-19 20:35:00,
2013-05-19 16:45:00,62.5,61.3,30.03,SE,126,0.0,0.0,96,0.00,,,0.01,Wunderground v.1.15,2013-05-19 20:45:00,
2013-05-19 16:55:00,62.5,60.7,30.03,SE,126,0.0,0.0,94,0.00,,,0.01,Wunderground v.1.15,2013-05-19 20:55:00,
2013-05-19 17:05:00,62.5,60.7,30.03,SE,126,0.0,0.0,94,0.00,,,0.01,Wunderground v.1.15,2013-05-19 21:05:00,
2013-05-19 17:15:00,62.5,60.7,30.03,SE,126,0.0,0.0,94,0.00,,,0.01,Wunderground v.1.15,2013-05-19 21:15:00,
2013-05-19 17:25:00,62.5,60.7,30.04,SE,126,0.0,0.0,94,0.00,,,0.01,Wunderground v.1.15,2013-05-19 21:25:00,
2013-05-19 17:35:00,62.6,60.8,30.04,SE,126,0.0,0.0,94,0.00,,,0.01,Wunderground v.1.15,2013-05-19 21:35:00,
2013-05-19 17:45:00,62.7,60.9,30.04,SE,126,0.0,0.0,94,0.00,,,0.01,Wunderground v.1.15,2013-05-19 21:45:00,
2013-05-19 17:55:00,62.8,61.3,30.04,SE,126,0.0,0.0,95,0.00,,,0.01,Wunderground v.1.15,2013-05-19 21:55:00,
2013-05-19 18:05:00,62.8,61.3,30.03,SE,126,0.0,0.0,95,0.00,,,0.01,Wunderground v.1.15,2013-05-19 22:05:00,
2013-05-19 18:15:00,62.9,61.4,30.03,SE,126,0.0,0.0,95,0.00,,,0.01,Wunderground v.1.15,2013-05-19 22:15:00,
2013-05-19 18:25:00,63.1,61.6,30.03,SE,125,0.0,0.0,95,0.00,,,0.01,Wunderground v.1.15,2013-05-19 22:25:00,
2013-05-19 18:35:00,63.3,61.8,30.03,SE,126,0.0,0.0,95,0.00,,,0.01,Wunderground v.1.15,2013-05-19 22:35:00,
2013-05-19 18:40:00,63.4,61.6,30.02,ESE,122,0.0,1.0,94,0.00,,,0.01,Wunderground v.1.15,2013-05-19 22:40:00,
2013-05-19 18:50:00,63.7,61.9,30.02,ESE,111,0.0,0.0,94,0.00,,,0.01,Wunderground v.1.15,2013-05-19 22:50:00,
2013-05-19 19:00:00,64.0,62.2,30.01,ENE,63,0.0,0.0,94,0.00,,,0.01,Wunderground v.1.15,2013-05-19 23:00:00,
2013-05-19 19:05:00,64.0,61.9,30.01,ENE,63,0.0,0.0,93,0.00,,,0.01,Wunderground v.1.15,2013-05-19 23:05:00,
2013-05-19 19:15:00,64.0,61.9,30.01,ENE,63,0.0,0.0,93,0.00,,,0.01,Wunderground v.1.15,2013-05-19 23:15:00,
2013-05-19 19:25:00,63.9,62.1,30.02,ENE,63,0.0,0.0,94,0.00,,,0.01,Wunderground v.1.15,2013-05-19 23:25:00,
2013-05-19 19:35:00,63.9,62.1,30.02,ENE,62,0.0,0.0,94,0.00,,,0.01,Wunderground v.1.15,2013-05-19 23:35:00,
2013-05-19 19:45:00,63.7,61.9,30.02,ENE,63,0.0,0.0,94,0.00,,,0.01,Wunderground v.1.15,2013-05-19 23:45:00,
2013-05-19 19:55:00,63.6,61.8,30.03,ENE,62,0.0,0.0,94,0.00,,,0.01,Wunderground v.1.15,2013-05-19 23:55:00,
2013-05-19 20:05:00,63.4,61.9,30.03,ENE,62,0.0,0.0,95,0.00,,,0.01,Wunderground v.1.15,2013-05-20 00:05:00,
2013-05-19 20:15:00,63.4,61.6,30.03,ENE,62,0.0,0.0,94,0.00,,,0.01,Wunderground v.1.15,2013-05-20 00:15:00,
2013-05-19 20:25:00,63.2,61.7,30.03,ENE,62,0.0,0.0,95,0.00,,,0.01,Wunderground v.1.15,2013-05-20 00:25:00,
2013-05-19 20:30:00,63.1,61.6,30.04,ENE,62,0.0,0.0,95,0.00,,,0.01,Wunderground v.1.15,2013-05-20 00:30:00,
2013-05-19 20:40:00,63.1,61.6,30.04,ENE,62,0.0,0.0,95,0.00,,,0.01,Wunderground v.1.15,2013-05-20 00:40:00,
2013-05-19 20:50:00,62.9,61.4,30.04,ENE,62,0.0,0.0,95,0.00,,,0.01,Wunderground v.1.15,2013-05-20 00:50:00,
2013-05-19 21:00:00,62.9,61.4,30.04,ENE,62,0.0,0.0,95,0.00,,,0.01,Wunderground v.1.15,2013-05-20 01:00:00,
2013-05-19 21:05:00,62.9,61.4,30.05,ENE,62,0.0,0.0,95,0.00,,,0.01,Wunderground v.1.15,2013-05-20 01:05:00,
2013-05-19 21:15:00,62.9,61.4,30.05,ENE,63,0.0,0.0,95,0.00,,,0.01,Wunderground v.1.15,2013-05-20 01:15:00,
2013-05-19 21:25:00,62.9,61.7,30.05,ENE,63,0.0,0.0,96,0.00,,,0.01,Wunderground v.1.15,2013-05-20 01:25:00,
2013-05-19 21:35:00,62.9,61.7,30.05,ENE,62,0.0,0.0,96,0.00,,,0.01,Wunderground v.1.15,2013-05-20 01:35:00,
2013-05-19 21:45:00,62.9,61.7,30.05,ENE,62,0.0,0.0,96,0.00,,,0.01,Wunderground v.1.15,2013-05-20 01:45:00,
2013-05-19 21:55:00,63.0,61.8,30.05,ENE,62,0.0,0.0,96,0.00,,,0.01,Wunderground v.1.15,2013-05-20 01:55:00,
2013-05-19 22:05:00,63.0,61.8,30.06,ENE,63,0.0,0.0,96,0.00,,,0.01,Wunderground v.1.15,2013-05-20 02:05:00,
2013-05-19 22:15:00,63.0,61.8,30.06,ENE,62,0.0,0.0,96,0.00,,,0.01,Wunderground v.1.15,2013-05-20 02:15:00,
2013-05-19 22:25:00,63.0,61.8,30.06,East,96,0.0,0.0,96,0.00,,,0.01,Wunderground v.1.15,2013-05-20 02:25:00,
2013-05-19 22:35:00,62.9,61.7,30.06,ESE,108,0.0,0.0,96,0.00,,,0.01,Wunderground v.1.15,2013-05-20 02:35:00,
2013-05-19 22:40:00,62.9,61.7,30.06,ESE,108,0.0,0.0,96,0.00,,,0.01,Wunderground v.1.15,2013-05-20 02:40:00,
2013-05-19 22:50:00,62.9,61.7,30.06,ESE,108,0.0,0.0,96,0.00,,,0.01,Wunderground v.1.15,2013-05-20 02:50:00,
2013-05-19 23:00:00,62.8,61.6,30.06,ESE,108,0.0,0.0,96,0.00,,,0.01,Wunderground v.1.15,2013-05-20 03:00:00,
2013-05-19 23:05:00,62.8,61.6,30.06,ESE,108,0.0,0.0,96,0.00,,,0.01,Wunderground v.1.15,2013-05-20 03:05:00,
2013-05-19 23:15:00,62.8,61.6,30.06,ESE,108,0.0,0.0,96,0.00,,,0.01,Wunderground v.1.15,2013-05-20 03:15:00,
2013-05-19 23:25:00,62.8,61.6,30.06,ESE,107,0.0,0.0,96,0.00,,,0.01,Wunderground v.1.15,2013-05-20 03:25:00,
2013-05-19 23:35:00,62.7,61.5,30.06,ESE,108,0.0,0.0,96,0.00,,,0.01,Wunderground v.1.15,2013-05-20 03:35:00,
2013-05-19 23:45:00,62.7,61.5,30.05,ESE,108,0.0,0.0,96,0.00,,,0.01,Wunderground v.1.15,2013-05-20 03:45:00,
2013-05-19 23:55:00,62.7,61.5,30.05,ESE,108,0.0,0.0,96,0.00,,,0.01,Wunderground v.1.15,2013-05-20 03:55:00,